Location: Zagreb
(45.8000°N, 16.0000°E)
Time: 14:50:55
(UTC+02:00)

Tiros 1 despin weight - Pass Details

Date: 11 August 2022
Orbit: 590 x 639 km, 48.2° (Epoch: 23 September)

Event Time Altitude Azimuth Distance (km) Brightness Sun altitude
Rises 16:28:57 0° 280° (W) 2,834 ? 37.0°
Reaches altitude 10° 16:31:16 10° 283° (WNW) 1,926 ? 36.7°
Maximum altitude 16:35:39 65° 6° (N) 650 ? 35.9°
Drops below altitude 10° 16:40:01 10° 89° (E) 1,916 ? 35.2°
Sets 16:42:19 0° 92° (E) 2,818 ? 34.8°
